Location: Brompton
(51.4000°N, 0.5333°E)
Time: 10:26:23
(UTC+00:00)

Cosmos 1898 Rocket - Pass Details

Date: 01 October 2021
Orbit: 752 x 784 km, 74.0° (Epoch: 17 October)

Event Time Altitude Azimuth Distance (km) Brightness Sun altitude
Rises 21:02:05 0° 239° (WSW) 3,217 7.0 -31.1°
Reaches altitude 10° 21:04:46 10° 252° (WSW) 2,301 6.3 -31.4°
Maximum altitude 21:09:13 28° 310° (NW) 1,423 5.4 -31.9°
Drops below altitude 10° 21:13:45 10° 9° (N) 2,331 6.3 -32.4°
Sets 21:16:29 0° 21° (NNE) 3,267 7.0 -32.7°
